{"data":{"norad_id":48214,"intl_designator":"2021-031E","name":"ONEWEB-0218","alt_names":[],"object_type":"PAYLOAD","status":"ACTIVE","operator":null,"country":"UK","launch_date":"2021-04-25","launch_site_code":"VOSTO","launch_vehicle":null,"mission":null,"orbit_class":"UNKNOWN","rcs_meters":null,"size_class":null,"mass_kg":null,"dimensions":null,"purposes":["comms"],"wikipedia_slug":null,"has_3d_model":false,"image_url":null,"decayed_at":null,"tle_current":{"epoch":"2026-05-25T02:43:43.669632Z","epoch_age_seconds":62440,"freshness":"FRESH","line1":"1 48214U 21031E   26145.11369988  .00000048  00000+0  95656-4 0  9995","line2":"2 48214  87.8946 294.2955 0000943 103.8792 256.2443 13.14501273245346","mean_motion":13.14501273,"eccentricity":9.43e-5,"inclination_deg":87.8946,"raan_deg":294.2955,"arg_perigee_deg":103.8792,"mean_anomaly_deg":256.2443,"bstar":9.5656e-5,"rev_number":24534,"period_min":109.54725032054,"perigee_km":1205.0810630224,"apogee_km":1206.5113928292,"semimajor_km":7583.9332279258,"source":"CELESTRAK","updated_at":"2026-05-25T13:38:22.396450Z"}}}